Hourly Data Report for October 27, 2014

All times are specified in Local Standard Time (LST). Add 1 hour to adjust for Daylight Saving Time where and when it is observed.

KITCHENER/WATERLOO
ONTARIO

43°27'39.000" N
80°22'43.000" W
321.60 m
6144239
71368
YKF

Download Data

Hourly Data (October 2014)
Hourly Data Report for October 27, 2014
Temp Definition
°C
Dew Point Temp Definition
°C
Rel Hum Definition
%
Wind Dir Definition
10's deg

Wind Spd Definition
km/h
Visibility Definition
km
Stn Press Definition
kPa
Hmdx Definition


Wind Chill Definition


Weather Definition


TIME
00:00 Legend Double Dagger -0.1 -0.2 99 28 4 9.7 97.54   -1 Fog
01:00 Legend Double Dagger 0.3 0.1 99   0 11.3 97.58     LegendNANA
02:00 Legend Double Dagger -1.2 -1.3 99   0 0.6 97.59     Freezing Fog
03:00 Legend Double Dagger -1.1 -1.2 99 26 4 0.6 97.60   -2 Freezing Fog
04:00 Legend Double Dagger -1.4 -1.5 99 27 4 0.6 97.62   -3 Freezing Fog
05:00 Legend Double Dagger -2.9 -3.0 99 8 4 0.6 97.67   -4 Freezing Fog
06:00 Legend Double Dagger -2.2 -2.3 99   0 1.6 97.72     Fog
07:00 Legend Double Dagger -2.8 -2.9 99   0 0.0 97.71     Freezing Fog
08:00 Legend Double Dagger -0.7 -0.8 99   0 0.6 97.78     Freezing Fog
09:00 Legend Double Dagger 4.2 3.9 98 LegendMM 4 8.1 97.79     Fog
10:00 Legend Double Dagger 8.1 5.7 85 12 9 16.1 97.76     LegendNANA
11:00 Legend Double Dagger 10.4 3.9 64 14 17 16.1 97.74     LegendNANA
12:00 Legend Double Dagger 11.7 5.1 64 14 21 16.1 97.63     LegendNANA
13:00 Legend Double Dagger 13.4 4.8 56 15 15 16.1 97.54     LegendNANA
14:00 Legend Double Dagger 12.9 6.0 63 14 21 16.1 97.45     LegendNANA
15:00 Legend Double Dagger 13.0 6.3 64 15 13 16.1 97.45     LegendNANA
16:00 Legend Double Dagger 13.3 6.5 63 12 18 16.1 97.32     LegendNANA
17:00 Legend Double Dagger 11.9 5.3 64 12 13 16.1 97.26     LegendNANA
18:00 Legend Double Dagger 9.2 5.0 75 11 18 16.1 97.25     LegendNANA
19:00 Legend Double Dagger 8.6 5.2 79 11 13 16.1 97.24     LegendNANA
20:00 Legend Double Dagger 8.1 5.4 83 11 9 16.1 97.16     LegendNANA
21:00 Legend Double Dagger 8.4 6.0 85 13 15 16.1 97.12     LegendNANA
22:00 Legend Double Dagger 9.2 6.1 81 4 8 16.1 97.19     LegendNANA
23:00 Legend Double Dagger 8.9 7.1 88 5 5 16.1 97.14     LegendNANA

Notes on Data Quality.

Legend

  • E = Estimated
  • M = Missing
  • NA = Not Available
  • ‡ = Partner data that is not subject to review by the National Climate Archives
Date modified: